Location: State Line Observation Field
(36.5320°N, 77.5360°W)
Time: 20:07:23
(UTC-05:00)

LightSail 2 - Pass Details

Date: 14 November 2019
Orbit: 696 x 730 km, 24.0° (Epoch: 14 December)

Event Time Altitude Azimuth Distance (km) Brightness Sun altitude
Exits shadow 05:43:58 - 237° (WSW) 2,465 7.5 -12.8°
Reaches altitude 10° 05:44:55 10° 230° (SW) 2,212 7.3 -12.6°
Maximum altitude 05:48:27 18° 188° (S) 1,717 7.2 -11.9°
Drops below altitude 10° 05:51:59 10° 145° (SE) 2,213 8.5 -11.2°
Sets 05:55:07 0° 127° (SE) 3,131 9.9 -10.6°
